Regional Weather Roundup
Issued by NWS

Home | Current Version | Previous Version | Graphics & Text | Print | Product List | Glossary On
Versions: 1 2 3 4 5 6 7 8 9 10 11 12 13 14 15 16 17 18 19 20 21 22 23 24 25 26 27 28 29 30 31 32 33 34 35 36 37 38 39 40 41 42 43 44 45 46 47 48 49 50
000
ASUS45 KABQ 291510
RWRNM
WEATHER ROUNDUP FOR NEW MEXICO
NATIONAL WEATHER SERVICE ALBUQUERQUE NM
800 AM MST THU JAN 29 2015

NOTE: "FAIR" MEANS FEW OR NO CLOUDS BELOW 12,000 FEET AGL WITH NO
       SIGNIFICANT WEATHER OR OBSTRUCTIONS TO VISION.

      THIS PRODUCT IS RELEASED AS TWO VERSIONS.  ONE VERSION NEAR
      THE TOP OF THE HOUR CONTAINING PRELIMINARY DATA FROM ALBUQUERQUE
      AND OTHER STATIONS.  A FINAL VERSION WITH ADDITIONAL DATA IS
      ISSUED ABOUT 10 MINUTES AFTER THE HOUR.

NMZ501-503-504-510>518-291600-
NORTHWEST PLATEAU/NORTHCENTRAL MOUNTAINS

CITY           SKY/WX    TMP DP  RH WIND       PRES   REMARKS
FARMINGTON     MOCLDY    34  28  79 E9        30.35R WCI  27
LOS ALAMOS     MOCLDY    39  27  60 SW10      30.41R WCI  33
SANTA FE       MOCLDY    40  27  59 S15       30.39R WCI  32
TAOS           CLOUDY    34  25  69 N6        30.41R WCI  29
ANGEL FIRE     FAIR      26  25  94 CALM      30.47R

$$
NMZ402-403-502-505>509-291600-
WESTCENTRAL MOUNTAINS/SOUTHWEST MOUNTAINS

CITY           SKY/WX    TMP DP  RH WIND       PRES   REMARKS
GALLUP         CLOUDY    34  29  82 CALM      30.33R
GRANTS         CLOUDY    33  31  91 W8        30.37R WCI  27
SILVER CITY    CLOUDY    45  32  61 N7        30.29R

$$
NMZ407-409-411-412-291600-
SOUTHERN DESERTS

CITY           SKY/WX    TMP DP  RH WIND       PRES   REMARKS
LORDSBURG      CLOUDY    48  32  53 S10       30.23S
DEMING         CLOUDY    48  35  60 E8        30.26R
LAS CRUCES     CLOUDY    50  35  56 NW8       30.27R
HOLLOMAN AFB   MOSUNNY   42  37  81 S7        30.26R
ALAMOGORDO     PTSUNNY   41  36  81 SE7       30.28R
T OR C         CLOUDY    50  31  48 N16G22    30.29R

$$
NMZ519>523-291600-
CENTRAL VALLEYS/CENTRAL HIGHLANDS

CITY           SKY/WX    TMP DP  RH WIND       PRES   REMARKS
ALBUQUERQUE    CLOUDY    48  28  46 E24G33    30.35R
DOUBLE EAGLE   MOCLDY    45  28  53 SE14      30.37R
MORIARTY ARPT  FAIR      38  30  74 SW3       30.44R
CLINES CORNERS CLOUDY    36  27  69 E17       30.41R WCI  26
BELEN          FAIR      37  32  82 W6        30.36R WCI  32
SOCORRO        FAIR      48  32  53 NW8       30.36R

$$
NMZ524>526-539-540-291600-
SOUTHCENTRAL MOUNTAINS

CITY           SKY/WX    TMP DP  RH WIND       PRES   REMARKS
RUIDOSO        MOSUNNY   39  27  60 SE14      30.45R WCI  31

$$
NMZ527>531-291600-
NORTHEAST HIGHLANDS/NORTHEAST PLAINS

CITY           SKY/WX    TMP DP  RH WIND       PRES   REMARKS
LAS VEGAS      CLOUDY    33  29  85 NE6       30.46R WCI  28
RATON          CLOUDY    36  27  69 N8        30.46R WCI  30
CLAYTON        CLOUDY    41  28  60 N12       30.46R

$$
NMZ532>537-291600-
EASTCENTRAL PLAINS

CITY           SKY/WX    TMP DP  RH WIND       PRES   REMARKS
TUCUMCARI      PTSUNNY   44  33  65 NE13      30.44R
CANNON AFB     PTSUNNY   42  33  69 NE22      30.39R
CLOVIS AIRPORT PTSUNNY   41  32  70 N22G29    30.41R

$$
NMZ028-029-538-291600-
SOUTHEAST PLAINS

CITY           SKY/WX    TMP DP  RH WIND       PRES   REMARKS
ROSWELL        CLOUDY    47  34  60 N13       30.40R
ARTESIA        CLOUDY    46  37  71 N16       30.41R
CARLSBAD       PTSUNNY   49  36  61 NW20      30.36R
HOBBS          SUNNY     45  36  70 N15       30.35R


$$



USA.gov is the U.S. government's official web portal to all federal, state and local government web resources and services.